When you browse on this site, cookies collect data to enhance your experience and personalize the content and advertising you see.
Visit our Privacy Policy to learn more. By continuing to use the site, you agree to this use of cookies and data.
  • In United Kingdom
  • List of Countries
  • For 7 days
  • Water Temperature
  • Satellite Maps
  • Weather Map
  • Weather Widgets
  • user-avatar
    Login

    Hourly Weather Wavre

    Today, 27 May, Monday

    Time Temperature Precipitation Wind Pressure Humidity
    00:00 +14°C° 0.2 mm 5 mps 752 mmHg 91%
    01:00 +14°C° 0.6 mm 5 mps 752 mmHg 93%
    02:00 +14°C° 0.6 mm 4 mps 752 mmHg 94%
    03:00 +14°C° 0.6 mm 4 mps 751 mmHg 96%
    04:00 +14°C° 0.1 mm 3 mps 751 mmHg 94%
    05:00 +14°C° 0.1 mm 3 mps 752 mmHg 92%
    06:00 +15°C° 0.1 mm 2 mps 752 mmHg 91%
    07:00 +16°C° 0 mm 2 mps 752 mmHg 85%
    08:00 +16°C° 0 mm 2 mps 752 mmHg 79%
    09:00 +17°C° 0 mm 2 mps 752 mmHg 73%
    10:00 +18°C° 0.1 mm 3 mps 752 mmHg 69%
    11:00 +18°C° 0.1 mm 4 mps 752 mmHg 65%
    12:00 +19°C° 0.1 mm 4 mps 751 mmHg 60%
    13:00 +19°C° 0 mm 4 mps 751 mmHg 60%
    14:00 +19°C° 0 mm 4 mps 751 mmHg 59%
    15:00 +19°C° 0 mm 4 mps 751 mmHg 58%
    16:00 +18°C° 0.1 mm 4 mps 751 mmHg 63%
    17:00 +18°C° 0.1 mm 3 mps 751 mmHg 69%
    18:00 +17°C° 0.1 mm 3 mps 751 mmHg 74%
    19:00 +14°C° 0 mm 3 mps 751 mmHg 78%
    20:00 +13°C° 0 mm 3 mps 751 mmHg 81%
    21:00 +11°C° 0 mm 3 mps 751 mmHg 84%
    22:00 +11°C° 0 mm 3 mps 751 mmHg 87%
    23:00 +10°C° 0 mm 3 mps 750 mmHg 90%

    Tomorrow, 28 May, Tuesday

    Time Temperature Precipitation Wind Pressure Humidity
    00:00 +10°C° 0 mm 3 mps 750 mmHg 93%
    01:00 +10°C° 0 mm 3 mps 750 mmHg 93%
    02:00 +10°C° 0 mm 3 mps 750 mmHg 94%
    03:00 +9°C° 0 mm 3 mps 750 mmHg 94%
    04:00 +10°C° 0.4 mm 3 mps 750 mmHg 93%
    05:00 +11°C° 0.4 mm 3 mps 750 mmHg 91%
    06:00 +11°C° 0.4 mm 4 mps 750 mmHg 89%
    07:00 +12°C° 1.2 mm 4 mps 750 mmHg 85%
    08:00 +13°C° 1.2 mm 4 mps 750 mmHg 81%
    09:00 +14°C° 1.2 mm 4 mps 750 mmHg 77%
    10:00 +15°C° 1.2 mm 4 mps 751 mmHg 75%
    11:00 +15°C° 1.2 mm 4 mps 751 mmHg 73%
    12:00 +17°C° 1.2 mm 3 mps 751 mmHg 71%
    13:00 +17°C° 1.1 mm 4 mps 751 mmHg 72%
    14:00 +17°C° 1.1 mm 4 mps 751 mmHg 72%
    15:00 +17°C° 1.1 mm 4 mps 752 mmHg 72%
    16:00 +15°C° 0.6 mm 4 mps 752 mmHg 76%
    17:00 +16°C° 0.6 mm 3 mps 753 mmHg 79%
    18:00 +14°C° 0.6 mm 3 mps 753 mmHg 82%
    19:00 +14°C° 0.2 mm 2 mps 754 mmHg 84%
    20:00 +12°C° 0.2 mm 2 mps 755 mmHg 86%
    21:00 +10°C° 0.2 mm 2 mps 755 mmHg 89%
    22:00 +10°C° 0 mm 2 mps 756 mmHg 90%
    23:00 +9°C° 0 mm 2 mps 756 mmHg 90%

    Day after tomorrow, 29 May, Wednesday

    Time Temperature Precipitation Wind Pressure Humidity
    00:00 +8°C° 0 mm 2 mps 756 mmHg 91%
    01:00 +9°C° 0 mm 1 mps 756 mmHg 91%
    02:00 +8°C° 0 mm 1 mps 757 mmHg 91%
    03:00 +8°C° 0 mm 1 mps 757 mmHg 91%
    04:00 +9°C° 0 mm 1 mps 757 mmHg 90%
    05:00 +9°C° 0 mm 2 mps 757 mmHg 89%
    06:00 +10°C° 0 mm 2 mps 757 mmHg 88%
    07:00 +13°C° 0 mm 2 mps 757 mmHg 82%
    08:00 +14°C° 0 mm 3 mps 757 mmHg 76%
    09:00 +17°C° 0 mm 3 mps 757 mmHg 70%
    10:00 +17°C° 0.2 mm 4 mps 757 mmHg 68%
    11:00 +18°C° 0.2 mm 4 mps 756 mmHg 65%
    12:00 +19°C° 0.2 mm 5 mps 756 mmHg 62%
    13:00 +17°C° 0.1 mm 6 mps 756 mmHg 66%
    14:00 +16°C° 0.1 mm 6 mps 756 mmHg 70%
    15:00 +15°C° 0.1 mm 6 mps 756 mmHg 74%
    16:00 +14°C° 0.2 mm 6 mps 755 mmHg 79%
    17:00 +13°C° 0.2 mm 6 mps 755 mmHg 84%
    18:00 +11°C° 0.2 mm 6 mps 755 mmHg 88%
    19:00 +11°C° 0.2 mm 6 mps 755 mmHg 90%
    20:00 +13°C° 0.2 mm 6 mps 755 mmHg 92%
    21:00 +13°C° 0.2 mm 6 mps 755 mmHg 94%
    22:00 +13°C° 0.1 mm 6 mps 755 mmHg 94%
    23:00 +13°C° 0.1 mm 6 mps 755 mmHg 94%

    30 May, Thursday

    Time Temperature Precipitation Wind Pressure Humidity
    00:00 +14°C° 0.1 mm 5 mps 755 mmHg 94%
    01:00 +14°C° 0 mm 5 mps 756 mmHg 94%
    02:00 +14°C° 0 mm 5 mps 756 mmHg 94%
    03:00 +13°C° 0 mm 5 mps 756 mmHg 95%
    04:00 +14°C° 0.1 mm 4 mps 756 mmHg 95%
    05:00 +14°C° 0.1 mm 4 mps 757 mmHg 95%
    06:00 +14°C° 0.1 mm 4 mps 757 mmHg 95%
    07:00 +14°C° 0.1 mm 4 mps 757 mmHg 94%
    08:00 +14°C° 0.1 mm 4 mps 757 mmHg 94%
    09:00 +15°C° 0.1 mm 4 mps 758 mmHg 93%
    10:00 +15°C° 0.2 mm 5 mps 758 mmHg 91%
    11:00 +16°C° 0.2 mm 5 mps 758 mmHg 89%
    12:00 +16°C° 0.2 mm 6 mps 758 mmHg 87%
    13:00 +17°C° 0.2 mm 6 mps 758 mmHg 86%
    14:00 +17°C° 0.2 mm 6 mps 758 mmHg 85%
    15:00 +17°C° 0.2 mm 6 mps 758 mmHg 84%
    16:00 +17°C° 0.1 mm 6 mps 759 mmHg 86%
    17:00 +16°C° 0.1 mm 6 mps 759 mmHg 87%
    18:00 +16°C° 0.1 mm 5 mps 759 mmHg 88%
    19:00 +15°C° 0 mm 6 mps 759 mmHg 88%
    20:00 +15°C° 0 mm 6 mps 759 mmHg 88%
    21:00 +14°C° 0 mm 6 mps 759 mmHg 88%
    22:00 +14°C° 0 mm 6 mps 759 mmHg 89%
    23:00 +14°C° 0 mm 6 mps 759 mmHg 90%

    31 May, Friday

    Time Temperature Precipitation Wind Pressure Humidity
    00:00 +13°C° 0 mm 6 mps 759 mmHg 91%
    01:00 +13°C° 0.1 mm 5 mps 759 mmHg 92%
    02:00 +14°C° 0.1 mm 5 mps 759 mmHg 93%
    03:00 +14°C° 0.1 mm 5 mps 759 mmHg 94%
    04:00 +14°C° 0.2 mm 4 mps 759 mmHg 93%
    05:00 +14°C° 0.2 mm 4 mps 760 mmHg 92%
    06:00 +14°C° 0.2 mm 4 mps 760 mmHg 91%
    07:00 +15°C° 0.2 mm 4 mps 760 mmHg 87%
    08:00 +17°C° 0.2 mm 4 mps 761 mmHg 83%
    09:00 +17°C° 0.2 mm 5 mps 761 mmHg 78%
    10:00 +17°C° 0.1 mm 5 mps 762 mmHg 76%
    11:00 +18°C° 0.1 mm 4 mps 762 mmHg 73%
    12:00 +18°C° 0.1 mm 4 mps 763 mmHg 70%
    13:00 +18°C° 0.1 mm 4 mps 763 mmHg 69%
    14:00 +18°C° 0.1 mm 4 mps 763 mmHg 68%
    15:00 +18°C° 0.1 mm 4 mps 764 mmHg 67%
    16:00 +17°C° 0 mm 4 mps 764 mmHg 69%
    17:00 +17°C° 0 mm 3 mps 764 mmHg 71%
    18:00 +16°C° 0 mm 3 mps 764 mmHg 74%
    19:00 +14°C° 0 mm 2 mps 765 mmHg 77%
    20:00 +13°C° 0 mm 2 mps 765 mmHg 80%
    21:00 +10°C° 0 mm 2 mps 766 mmHg 83%
    22:00 +10°C° 0 mm 2 mps 766 mmHg 85%
    23:00 +10°C° 0 mm 1 mps 766 mmHg 87%

    1 June, Saturday

    Time Temperature Precipitation Wind Pressure Humidity
    00:00 +10°C° 0 mm 1 mps 766 mmHg 88%
    01:00 +9°C° 0 mm 1 mps 766 mmHg 89%
    02:00 +9°C° 0 mm 1 mps 766 mmHg 90%
    03:00 +9°C° 0 mm 1 mps 766 mmHg 90%
    04:00 +10°C° 0 mm 1 mps 766 mmHg 87%
    05:00 +10°C° 0 mm 2 mps 766 mmHg 84%
    06:00 +12°C° 0 mm 2 mps 766 mmHg 80%
    07:00 +13°C° 0 mm 2 mps 766 mmHg 74%
    08:00 +15°C° 0 mm 1 mps 766 mmHg 67%
    09:00 +18°C° 0 mm 1 mps 766 mmHg 60%
    10:00 +19°C° 0 mm 1 mps 766 mmHg 56%
    11:00 +21°C° 0 mm 1 mps 765 mmHg 53%
    12:00 +20°C° 0 mm 0 mps 765 mmHg 49%
    13:00 +20°C° 0 mm 0 mps 765 mmHg 49%
    14:00 +21°C° 0 mm 0 mps 765 mmHg 49%
    15:00 +21°C° 0 mm 0 mps 764 mmHg 48%
    16:00 +20°C° 0 mm 0 mps 764 mmHg 53%
    17:00 +20°C° 0 mm 0 mps 764 mmHg 57%
    18:00 +20°C° 0 mm 0 mps 764 mmHg 62%
    19:00 +20°C° 0 mm 1 mps 764 mmHg 64%
    20:00 +18°C° 0 mm 1 mps 764 mmHg 65%
    21:00 +15°C° 0 mm 1 mps 764 mmHg 67%
    22:00 +14°C° 0 mm 1 mps 764 mmHg 68%
    23:00 +14°C° 0 mm 1 mps 764 mmHg 69%
    Show more